Location: Balaclava NSW 2575, Australia
(34.4510°S, 150.4953°E)
Time: 23:05:13
(UTC+10:00)

X-37B - Pass Details

Date: 04 August 2021
Orbit: 381 x 393 km, 45.0° (Epoch: 29 August)

Event Time Altitude Azimuth Distance (km) Brightness Sun altitude
Rises 17:42:54 0° 233° (SW) 2,315 5.1 -5.4°
Reaches altitude 10° 17:45:44 10° 207° (SSW) 1,454 3.6 -5.9°
Maximum altitude 17:47:36 14° 172° (S) 1,222 2.9 -6.3°
Drops below altitude 10° 17:49:29 10° 137° (SE) 1,450 3.0 -6.7°
Enters shadow 17:50:13 - 127° (SE) 1,635 3.1 -6.8°
